Location: Chimay
(50.0486°N, 4.3171°E)
Time: 06:09:18
(UTC+00:00)

CZ-2C R/B - Pass Details

Date: 08 August 2020
Orbit: 785 x 870 km, 98.3° (Epoch: 23 September)

Event Time Altitude Azimuth Distance (km) Brightness Sun altitude
Rises 20:16:04 0° 11° (N) 3,292 6.2 -9.3°
Reaches altitude 10° 20:18:26 10° 7° (N) 2,357 5.5 -9.6°
Maximum altitude 20:23:29 56° 291° (WNW) 939 3.4 -10.3°
Drops below altitude 10° 20:28:32 10° 214° (SW) 2,352 5.0 -10.9°
Sets 20:30:53 0° 210° (SSW) 3,285 5.7 -11.2°
